Change the Weather History Date:

Sunday, May 4, 2014

  Actual Average Record
Temperature  
Mean Temperature 72 °F -  
Max Temperature 94 °F 72 °F 94 °F (2014)
Min Temperature 50 °F 54 °F 32 °F (2013)
Cooling Degree Days 6    
Growing Degree Days 22 (Base 50)    
Moisture  
Dew Point 42 °F    
Average Humidity 40    
Maximum Humidity 82    
Minimum Humidity 12    
Precipitation  
Precipitation 0.00 in - - ()
Sea Level Pressure  
Sea Level Pressure 29.86 in    
Wind  
Wind Speed 5 mph (SSE)    
Max Wind Speed 15 mph    
Max Gust Speed 26 mph    
Visibility 10 miles    
Events      
Averages and records for this station are not official NWS values.
T = Trace of Precipitation, MM = Missing Value Source: NWS Daily Summary

Daily Weather History Graph

Daily Weather History Graph

Search for Another Location

Airport or City:

Trip Planner

Search our weather history database for the weather conditions in past years. The results will help you decide how hot, cold, wet, or windy it might be!

Date:

Astronomy

May. 04, 2014 Rise Set
Actual Time 6:09 AM CDT 8:01 PM CDT
Civil Twilight 5:41 AM CDT 8:30 PM CDT
Nautical Twilight 5:06 AM CDT 9:04 PM CDT
Astronomical Twilight 4:29 AM CDT 9:42 PM CDT
Moon 10:34 AM CDT (5/4) 12:06 AM CDT (5/4)
Length of Visible Light 14h 49m
Length of Day
13h 52m
Waxing Crescent, 28% of the Moon is Illuminated
May 4
Waxing Crescent
May 6
First Quarter
May 14
Full
May 21
Last Quarter
May 28
New

Hourly Weather History & Observations

Time (CDT) Temp. Dew Point Humidity Pressure Visibility Wind Dir Wind Speed Gust Speed Precip Events Conditions
12:58 AM 59.7 °F 44.8 °F 58% 29.94 in 10.0 mi SE 2.3 mph - N/A   Clear
1:58 AM 59.0 °F 44.4 °F 58% 29.93 in 10.0 mi East 2.3 mph - N/A   Clear
2:58 AM 53.2 °F 46.6 °F 78% 29.92 in 10.0 mi East 2.3 mph - N/A   Clear
3:58 AM 54.0 °F 46.6 °F 76% 29.94 in 10.0 mi SE 1.2 mph - N/A   Clear
4:58 AM 52.3 °F 45.7 °F 78% 29.93 in 10.0 mi SSE 6.9 mph - N/A   Clear
5:58 AM 50.9 °F 45.5 °F 82% 29.93 in 10.0 mi SSE 6.9 mph - N/A   Clear
6:58 AM 51.8 °F 45.5 °F 79% 29.94 in 10.0 mi SE 3.5 mph - N/A   Clear
7:58 AM 58.1 °F 48.0 °F 69% 29.94 in 10.0 mi East 2.3 mph - N/A   Clear
8:58 AM 63.5 °F 49.5 °F 60% 29.94 in 10.0 mi ENE 3.5 mph - N/A   Clear
9:58 AM 70.3 °F 49.5 °F 47% 29.93 in 10.0 mi ENE 5.8 mph - N/A   Clear
10:58 AM 80.1 °F 45.1 °F 29% 29.91 in 10.0 mi Variable 4.6 mph - N/A   Clear
11:58 AM 85.6 °F 42.6 °F 22% 29.89 in 10.0 mi Variable 4.6 mph - N/A   Clear
12:58 PM 88.9 °F 42.4 °F 20% 29.86 in 10.0 mi SW 10.4 mph - N/A   Clear
1:58 PM 90.7 °F 41.9 °F 18% 29.84 in 10.0 mi SSW 8.1 mph - N/A   Clear
2:58 PM 93.2 °F 38.7 °F 15% 29.81 in 10.0 mi SW 12.7 mph 21.9 mph N/A   Clear
3:58 PM 93.7 °F 36.1 °F 13% 29.79 in 10.0 mi SSW 15.0 mph 25.3 mph N/A   Partly Cloudy
4:58 PM 93.9 °F 34.7 °F 12% 29.77 in 10.0 mi SSW 13.8 mph 21.9 mph N/A   Clear
5:58 PM 93.2 °F 33.1 °F 12% 29.77 in 10.0 mi SW 10.4 mph 26.5 mph N/A   Clear
6:58 PM 90.9 °F 34.2 °F 13% 29.77 in 10.0 mi SW 10.4 mph - N/A   Clear
7:58 PM 85.3 °F 38.5 °F 19% 29.77 in 10.0 mi South 5.8 mph - N/A   Clear
8:58 PM 81.9 °F 41.2 °F 24% 29.79 in 10.0 mi South 9.2 mph - N/A   Clear
9:58 PM 79.3 °F 41.0 °F 25% 29.80 in 10.0 mi South 6.9 mph - N/A   Clear
10:58 PM 78.6 °F 41.4 °F 26% 29.79 in 10.0 mi South 9.2 mph - N/A   Clear
11:58 PM 76.1 °F 42.4 °F 30% 29.79 in 10.0 mi South 6.9 mph - N/A   Clear